Terminal Aerodrome Forecast
Issued by NWS Anchorage, AK

Home | Current Version | Previous Version | Text Only | Print | Product List | Glossary On
Versions: 1 2 3 4 5 6 7 8 9 10 11 12 13 14 15 16 17 18 19 20 21 22 23 24 25 26 27 28 29 30 31 32 33 34 35 36 37 38 39 40 41 42 43 44 45 46 47 48 49 50
000
FTAK31 PANC 031135
TAFANC
TAF
PANC 031135Z 0312/0418 00000KT 6SM -SN BKN030 OVC050 WS020/13025KT
      TEMPO 0315/0318 SCT030 BKN050
     FM031800 16010G18KT P6SM -SHRA BKN030 OVC050
     FM040000 15008KT P6SM VCSH SCT030 OVC060
     FM040700 01005KT P6SM SCT040 BKN060=

USA.gov is the U.S. government's official web portal to all federal, state and local government web resources and services.